This is the latest recevied weather packets stored in our database for station/object CQ0XCR-11. If no packets are shown the sender has not sent any weather packets the latest 1 day(s).
| Time | Temp. | Humidity | Pressure | Rain* | Wind** | Luminosity | Snow |
|---|---|---|---|---|---|---|---|
| 1777994858 | -2.78° C | - | 6550.2 hPa | 0.25 mm | 1.79 m/s, 284° | - | - |
| 1777994610 | -2.78° C | - | 6550.2 hPa | 0.25 mm | 4.47 m/s, 289° | - | - |
| 1777993990 | -2.78° C | - | 6550.2 hPa | 0.25 mm | 1.79 m/s, 270° | - | - |
| 1777993867 | -2.78° C | - | 6550.2 hPa | 0.25 mm | 1.34 m/s, 258° | - | - |
| 1777993742 | -2.78° C | - | 6550.2 hPa | 0.25 mm | 2.68 m/s, 234° | - | - |
| 1777993619 | -2.78° C | - | 6550.2 hPa | 0.25 mm | 3.13 m/s, 278° | - | - |
| 1777993494 | -2.78° C | - | 6550.2 hPa | 0.25 mm | 2.24 m/s, 279° | - | - |
| 1777993371 | -2.78° C | - | 6550.2 hPa | 0.25 mm | 2.68 m/s, 334° | - | - |
| 1777993246 | -2.78° C | - | 6550.2 hPa | 0.25 mm | 4.02 m/s, 276° | - | - |
| 1777993123 | -2.78° C | - | 6550.2 hPa | 0.25 mm | 0.89 m/s, 293° | - | - |
| 1777992998 | -2.78° C | - | 6550.2 hPa | 0.25 mm | 1.79 m/s, 307° | - | - |
| 1777992875 | -2.78° C | - | 6550.2 hPa | 0.25 mm | 1.79 m/s, 272° | - | - |
| 1777992750 | -2.78° C | - | 6550.2 hPa | 0.25 mm | 4.02 m/s, 260° | - | - |
| 1777992627 | -2.78° C | - | 6550.2 hPa | 0.25 mm | 2.68 m/s, 349° | - | - |
| 1777992379 | -2.78° C | - | 6550.2 hPa | 0.25 mm | 0.89 m/s, 308° | - | - |
| 1777992131 | -2.78° C | - | 6550.2 hPa | 0.25 mm | 4.92 m/s, 331° | - | - |
| 1777992006 | -2.78° C | - | 6550.2 hPa | 0.25 mm | 0.45 m/s, 283° | - | - |
| 1777991758 | -2.78° C | - | 6550.2 hPa | 0.25 mm | 2.24 m/s, 313° | - | - |
| 1777991635 | -2.78° C | - | 6550.2 hPa | 0.25 mm | 1.34 m/s, 279° | - | - |
| 1777991510 | -2.78° C | - | 6550.2 hPa | 0.25 mm | 1.79 m/s, 283° | - | - |
| 1777991387 | -2.78° C | - | 6550.2 hPa | 0.25 mm | 2.68 m/s, 337° | - | - |
| 1777991263 | -2.78° C | - | 6550.2 hPa | 0.25 mm | 1.79 m/s, 327° | - | - |
| 1777991139 | -2.78° C | - | 6550.2 hPa | 0.25 mm | 2.68 m/s, 312° | - | - |
| 1777991015 | -2.78° C | - | 6550.2 hPa | 0.25 mm | 3.13 m/s, 335° | - | - |
| 1777990767 | -2.78° C | - | 6550.2 hPa | 0.25 mm | 1.34 m/s, 319° | - | - |
* Rain since midnight (hover to see other rain measurements)
** Current wind speed in m/s (hover to see current wind gust speed)